This demonstration page uses our WeatherBlox Daily Observations layout. Learn more.

Left ArrowRight Arrow

38.88101, -77.10428

Hourly Observations for May 26, 2020

Temp ( °F °C ) Dew Point ( °F °C ) Humidity (%) Winds ( mph kmh ) Pressure ( in mb ) Visibility ( mi km ) Precip ( " mm )
12:52 am 00:52 Mostly Cloudy 65 18.3 60 15.6 84 84 SE 3 6 30.18 1022 10 16.0934 0 0
1:52 am 01:52 Mostly Clear 64 17.8 60 15.6 87 87 E 5 7 30.18 1022 10 16.0934 0 0
2:52 am 02:52 Partly Cloudy 63 17.2 59 15 87 87 Calm 30.17 1022 10 16.0934 0 0
3:52 am 03:52 Partly Cloudy 64 17.8 60 15.6 87 87 Calm 30.17 1022 10 16.0934 0 0
4:52 am 04:52 Partly Cloudy 63 17.2 60 15.6 90 90 ENE 3 6 30.18 1022 10 16.0934 0 0
5:52 am 05:52 Mostly Sunny 62 16.7 59 15 90 90 E 6 9 30.2 1023 10 16.0934 0 0
6:52 am 06:52 Mostly Sunny 64 17.8 60 15.6 87 87 Calm 30.22 1023 10 16.0934 0 0
7:52 am 07:52 Mostly Sunny 66 18.9 61 16.1 84 84 Calm 30.22 1023 10 16.0934 0 0
8:52 am 08:52 Mostly Sunny 69 20.6 61 16.1 76 76 Calm 30.22 1023 10 16.0934 0 0
9:22 am 09:22 Mostly Cloudy 71 21.7 61 16.1 71 71 Calm 30.22 1023 10 16.0934 0 0
9:52 am 09:52 Mostly Cloudy 69 20.6 63 17.2 81 81 SE 3 6 30.22 1024 10 16.0934 0 0
10:52 am 10:52 Mostly Cloudy 72 22.2 63 17.2 73 73 SE 3 6 30.23 1024 10 16.0934 0 0
11:26 am 11:26 Partly Cloudy 72 22.2 63 17.2 73 73 ESE 3 6 30.23 1024 10 16.0934 0 0
11:52 am 11:52 Partly Cloudy 74 23.3 62 16.7 67 67 Calm 30.22 1023 10 16.0934 0 0
12:52 pm 12:52 Partly Cloudy 76 24.4 64 17.8 67 67 SSE 6 9 30.21 1023 10 16.0934 0 0
1:52 pm 13:52 Partly Cloudy 76 24.4 64 17.8 67 67 S 6 9 30.2 1023 10 16.0934 0 0
2:52 pm 14:52 Partly Cloudy 79 26.1 64 17.8 60 60 SSW 9 15 30.18 1022 10 16.0934 0 0
3:52 pm 15:52 Mostly Cloudy 79 26.1 64 17.8 60 60 S 7 11 30.17 1022 10 16.0934 0 0
4:52 pm 16:52 Mostly Cloudy 79 26.1 65 18.3 62 62 S 6 9 30.16 1021 10 16.0934 0 0
5:52 pm 17:52 Mostly Cloudy 78 25.6 65 18.3 64 64 ESE 10 17 30.16 1021 10 16.0934 0 0
6:52 pm 18:52 Mostly Cloudy 77 25 65 18.3 66 66 SSE 9 15 30.15 1021 10 16.0934 0 0
7:52 pm 19:52 Mostly Cloudy 75 23.9 65 18.3 71 71 SSE 8 13 30.16 1021 10 16.0934 0 0
8:52 pm 20:52 Mostly Cloudy 72 22.2 64 17.8 76 76 SSE 7 11 30.16 1021 10 16.0934 0 0
9:52 pm 21:52 Mostly Cloudy 71 21.7 64 17.8 79 79 SE 8 13 30.16 1021 10 16.0934 0 0
10:52 pm 22:52 Mostly Cloudy 70 21.1 63 17.2 79 79 S 5 7 30.16 1022 10 16.0934 0 0
11:52 pm 23:52 Mostly Cloudy 68 20 64 17.8 87 87 S 7 11 30.18 1022 10 16.0934 0 0

Powered by AerisWeather